Location: Newark
(13.6797°N, 8.5297°E)
Time: 15:28:20
(UTC+00:00)

Altair - Pass Details

Date: 03 February 2020
Orbit: 1502 x 1682 km, 47.2° (Epoch: 24 February)

Event Time Altitude Azimuth Distance (km) Brightness Sun altitude
Rises 01:49:22 0° 194° (SSW) 4,674 - -58.6°
Reaches altitude 10° 01:52:57 10° 183° (S) 3,715 - -57.7°
Maximum altitude 02:00:41 29° 127° (SE) 2,585 - -55.9°
Exits shadow 02:03:25 25° 101° (E) 2,777 9.0 -55.2°
Drops below altitude 10° 02:08:38 10° 71° (ENE) 3,835 9.9 -54.0°
Sets 02:12:20 0° 61° (ENE) 4,849 10.5 -53.1°
